Regional Weather Roundup
Issued by NWS

Home | Current Version | Previous Version | Text Only | Print | Product List | Glossary Off
Versions: 1 2 3 4 5 6 7 8 9 10 11 12 13 14 15 16 17 18 19 20 21 22 23 24 25 26 27 28 29 30 31 32 33 34 35 36 37 38 39 40 41 42 43 44 45 46 47 48 49 50

000
ASUS43 KLOT 031021
RWRIL

ILLINOIS REGIONAL WEATHER ROUNDUP
NATIONAL WEATHER SERVICE CHICAGO/ROMEOVILLE IL
500 AM CDT MON AUG 03 2015

NOTE: "FAIR" INDICATES FEW OR NO CLOUDS BELOW 12,000 FEET WITH NO
SIGNIFICANT WEATHER AND/OR OBSTRUCTIONS TO VISIBILITY.

* THESE STATIONS ARE NOT UNDER NWS QUALITY CONTROL. THEY ALSO MAY NOT
  REPORT WEATHER SUCH AS PRECIPITATION OR FOG.

ILZ001-002-007-009-015-016-024-031100-
NORTHWEST ILLINOIS

CITY           SKY/WX    TMP DP  RH WIND       PRES   REMARKS
MOLINE         MOCLDY    68  62  81 W5        29.84R
STERLING*      CLEAR     70  63  78 N5        29.80R
SAVANNA*       CLEAR     69  60  72 N8        29.83R
$$

ILZ003-004-008-010-011-017-018-031100-
NORTH CENTRAL ILLINOIS

CITY           SKY/WX    TMP DP  RH WIND       PRES   REMARKS
ROCKFORD       CLOUDY    70  61  73 NW8       29.82R
FREEPORT*      MOCLDY    64  60  86 NW6       29.84R
ROCHELLE*      CLEAR     67  65  91 CALM      29.82R
DE KALB*       CLEAR     66  64  93 W3        29.82R
PERU*          CLEAR     67  64  88 NW7       29.81R
$$

ILZ005-006-012>014-019>023-031100-
NORTHEAST ILLINOIS

CITY           SKY/WX    TMP DP  RH WIND       PRES   REMARKS
CHICAGO-OHARE  PTCLDY    67  65  93 W7        29.77R
CHICAGO-MIDWAY PTCLDY    69  64  84 CALM      29.77R
AURORA         CLEAR     64  61  90 W3        29.80R
LANSING*       PTCLDY    64  63  97 CALM      29.78R
JOLIET*        PTCLDY    68  65  91 CALM      29.78S
WAUKEGAN       MOCLDY    66  64  93 VRB3      29.77R
DUPAGE AIRPORT CLEAR     65  63  93 CALM      29.79R
KANKAKEE*      PTCLDY    68  65  88 CALM      29.79R
WHEELING       NOT AVBL
MORRIS*        CLEAR     66  64  91 CALM      29.77S
ROMEOVILLE*    CLEAR     65  64  97 NW5       29.79R
NORTHERLY ISL    N/A     70  64  81 W7          N/A
$$

LMZ740>746-031100-
SOUTHERN LAKE MICHIGAN

STATION/POSITION SKY/WX   TEMP    WIND        PRES    VSBY  WAVE
                          AIR SEA DIR/SP/G                  HT/PER
                          (F)     (DEG/KT/KT) (MB)    (MI)  (FT/S)
HARRISON CRIB              71     270/  8/  9   N/A
BURNHAM HARBOR             69     240/  7/  9   N/A
CALUMET HARBOR             68     230/  3/  4   N/A
BURNS HARBOR               72     290/  4/  6 1008.1S
MICHIGAN CITY              67     130/  4/  5   N/A
MICHIGAN CITY 6N           72 73  310/  4/  6   N/A           2/ 5
ST. JOSEPH                 71 73  340/  6/  8   N/A           3/ 4
$$

ILZ025>027-034>036-040-047-049-050-058-095>099-031100-
WEST-CENTRAL ILLINOIS

CITY           SKY/WX    TMP DP  RH WIND       PRES   REMARKS
QUINCY         PTCLDY    68  61  78 N5        29.85S
GALESBURG*     FAIR      68  62  83 NW7       29.83F
MACOMB*        PTCLDY    66  63  89 NW6       29.86S
JACKSONVILLE*  CLEAR     69  63  81 W5        29.84R
PITTSFIELD*    PTCLDY    71  60  67 CALM      29.87R
$$

ILZ028>032-037-038-041>044-048-051>054-059>061-031100-
CENTRAL ILLINOIS

CITY           SKY/WX    TMP DP  RH WIND       PRES   REMARKS
PONTIAC        PTCLDY    69  68  96 CALM      29.80R
BLOOMINGTON    PTCLDY    74  67  78 NW8       29.82R
DECATUR        CLEAR     74  67  78 W8        29.81S
PEORIA         MOCLDY    73  63  70 NW6       29.82R
LACON*         CLEAR     69  64  85 CALM      29.80R
LINCOLN*       CLEAR     74  67  79 CALM      29.81R
SPRINGFIELD    CLEAR     69  67  93 W7        29.82S
TAYLORVILLE    CLEAR     68  66  94 W5        29.83R
$$

ILZ033-039-045-046-055>057-062-063-031100-
EAST-CENTRAL ILLINOIS

CITY           SKY/WX    TMP DP  RH WIND       PRES   REMARKS
CHAMPAIGN      CLEAR     69  67  93 W5        29.81R
DANVILLE*      CLEAR     70  68  95 W5        29.77R
RANTOUL*       CLEAR     74  70  89 W7        29.79S
MATTOON        CLEAR     73  68  84 W6        29.81R
PARIS*         CLEAR     71  70  96 SW5       29.81S
$$

ILZ079-100>102-031100-
SOUTHWEST ILLINOIS

CITY           SKY/WX    TMP DP  RH WIND       PRES   REMARKS
ALTON          MOCLDY    68  66  91 W5        29.85S
BELLEVILLE     MOCLDY    76  71  86 SW7       29.83R
CAHOKIA*       MOCLDY    78  67  68 SW5       29.84R HX  80
SPARTA*        MOCLDY    75  69  81 W5        29.86S
$$

ILZ064>066-069>071-074>076-080>082-084>086-088>090-092>094-031100-
SOUTH-CENTRAL ILLINOIS

CITY           SKY/WX    TMP DP  RH WIND       PRES   REMARKS
CARBONDALE     PTCLDY    76  70  82 SW8       29.85S
CAIRO*         CLEAR     75  71  86 S3        29.87S
EFFINGHAM*     CLEAR     71  67  88 CALM      29.84S
MARION         FAIR      77  72  83 SW5       29.86S
MT. VERNON     CLEAR     73  66  78 SW3       29.85S
CENTRALIA*     PTCLDY    73  67  83 SW5       29.84R
SALEM*         PTCLDY    74  70  85 SW5       29.84S
METROPOLIS*    CLEAR     75  74  95 SW6       29.88S
$$

ILZ067-068-072-073-078-083-087-091-031100-
SOUTHEAST ILLINOIS

CITY           SKY/WX    TMP DP  RH WIND       PRES   REMARKS
LAWRENCEVILLE  CLEAR     73  70  90 S7        29.83R
FLORA*         CLEAR     71  68  92 SW3       29.84R
FAIRFIELD*     CLEAR     73  70  91 SW3       29.83R
HARRISBURG*    CLEAR     72  71  96 CALM      29.87R
ROBINSON*      CLEAR     72  70  93 SW6       29.82S
CARMI*         PTCLDY    74  67  78 SW6       29.84S
$$

ABBREVIATIONS USED IN REMARKS
   TC - TEMPERATURE IN CELSIUS
  WCI - WIND CHILL INDEX
   HX - HEAT INDEX
  VSB - VISIBILITY
$$




USA.gov is the U.S. government's official web portal to all federal, state and local government web resources and services.